,,Stat6,,Stat2,,Stat8,,Stat9,,Stat10,,Wind1,,Wind1,
time,status,PA1M_AVG,status,PR1M_SUM,status,RH1M_AVG,status,SR1M_AVG,status,TA1M_AVG,status,W1dAve1m,status,W1sAve1m,
2009-08-03, 00:00:00,VALID,918.314,VALID,0,VALID,100,VALID,-0.0849042,VALID,17.9458,VALID,129,VALID,0,
2009-08-03, 00:01:00,VALID,918.307,VALID,0,VALID,100,VALID,-0.0849042,VALID,17.9588,VALID,130,VALID,0,
2009-08-03, 00:02:00,VALID,918.297,VALID,0,VALID,100,VALID,-0.0679233,VALID,17.9396,VALID,138,VALID,0,
2009-08-03, 00:03:00,VALID,918.287,VALID,0,VALID,100,VALID,-0.0509425,VALID,17.9199,VALID,145,VALID,0,
2009-08-03, 00:04:00,VALID,918.28,VALID,0,VALID,100,VALID,-0.0849042,VALID,17.8937,VALID,149,VALID,0,
2009-08-03, 00:05:00,VALID,918.255,VALID,0,VALID,100,VALID,-0.0849042,VALID,17.8615,VALID,152,VALID,0,
2009-08-03, 00:06:00,VALID,918.235,VALID,0,VALID,100,VALID,-0.101885,VALID,17.8647,VALID,133,VALID,0,
2009-08-03, 00:07:00,VALID,918.219,VALID,0,VALID,100,VALID,-0.101885,VALID,17.9493,VALID,143,VALID,0,
2009-08-03, 00:08:00,VALID,918.206,VALID,0,VALID,100,VALID,-0.101885,VALID,17.9592,VALID,125,VALID,0,
2009-08-03, 00:09:00,VALID,918.192,VALID,0,VALID,100,VALID,-0.101885,VALID,17.9493,VALID,121,VALID,0,
2009-08-03, 00:10:00,VALID,918.169,VALID,0,VALID,100,VALID,-0.101885,VALID,17.9685,VALID,136,VALID,0,
2009-08-03, 00:11:00,VALID,918.154,VALID,0,VALID,100,VALID,-0.0849042,VALID,17.9845,VALID,124,VALID,0,
2009-08-03, 00:12:00,VALID,918.126,VALID,0,VALID,100,VALID,-0.0849042,VALID,17.9914,VALID,134,VALID,0,
2009-08-03, 00:13:00,VALID,918.099,VALID,0,VALID,100,VALID,-0.0509425,VALID,18.0172,VALID,125,VALID,0,
2009-08-03, 00:14:00,VALID,918.09,VALID,0,VALID,100,VALID,-0.0849042,VALID,18.0658,VALID,125,VALID,0,
2009-08-03, 00:15:00,VALID,918.074,VALID,0,VALID,100,VALID,-0.135847,VALID,18.1114,VALID,126,VALID,0,
2009-08-03, 00:16:00,VALID,918.087,VALID,0,VALID,100,VALID,-0.101885,VALID,18.1374,VALID,128,VALID,0,
2009-08-03, 00:17:00,VALID,918.076,VALID,0,VALID,100,VALID,-0.0509425,VALID,18.1536,VALID,129,VALID,0,
2009-08-03, 00:18:00,VALID,918.071,VALID,0,VALID,100,VALID,-0.0339617,VALID,18.1469,VALID,126,VALID,0.041061,
2009-08-03, 00:19:00,VALID,918.058,VALID,0,VALID,100,VALID,-0.0679233,VALID,18.1569,VALID,127,VALID,0.00117188,
2009-08-03, 00:20:00,VALID,918.036,VALID,0,VALID,100,VALID,-0.0849042,VALID,18.1636,VALID,125,VALID,0,
2009-08-03, 00:21:00,VALID,918.019,VALID,0,VALID,100,VALID,-0.101885,VALID,18.1571,VALID,122,VALID,0,
2009-08-03, 00:22:00,VALID,918.005,VALID,0,VALID,100,VALID,-0.101885,VALID,18.1508,VALID,130,VALID,0,
2009-08-03, 00:23:00,VALID,917.975,VALID,0,VALID,100,VALID,-0.101885,VALID,18.1439,VALID,113,VALID,0,
2009-08-03, 00:24:00,VALID,917.949,VALID,0,VALID,100,VALID,-0.101885,VALID,18.1341,VALID,89,VALID,0,
2009-08-03, 00:25:00,VALID,917.926,VALID,0,VALID,100,VALID,-0.101885,VALID,18.1274,VALID,98,VALID,0,
2009-08-03, 00:26:00,VALID,917.925,VALID,0,VALID,100,VALID,-0.101885,VALID,18.0985,VALID,93,VALID,0,
2009-08-03, 00:27:00,VALID,917.915,VALID,0,VALID,100,VALID,-0.0339617,VALID,18.0948,VALID,98,VALID,0.00195313,
2009-08-03, 00:28:00,VALID,917.905,VALID,0,VALID,100,VALID,0.0169808,VALID,18.0906,VALID,99,VALID,0.0288318,
2009-08-03, 00:29:00,VALID,917.883,VALID,0,VALID,100,VALID,0,VALID,18.1168,VALID,105,VALID,0,
2009-08-03, 00:30:00,VALID,917.869,VALID,0,VALID,100,VALID,0,VALID,18.1101,VALID,114,VALID,0,
2009-08-03, 00:31:00,VALID,917.852,VALID,0,VALID,100,VALID,0,VALID,18.1071,VALID,115,VALID,0,
2009-08-03, 00:32:00,VALID,917.845,VALID,0,VALID,100,VALID,0,VALID,18.1071,VALID,110,VALID,0,
2009-08-03, 00:33:00,VALID,917.838,VALID,0,VALID,100,VALID,0.0339617,VALID,18.0941,VALID,119,VALID,0,
2009-08-03, 00:34:00,VALID,917.841,VALID,0,VALID,100,VALID,0,VALID,18.0647,VALID,118,VALID,0.0354421,
2009-08-03, 00:35:00,VALID,917.852,VALID,0,VALID,100,VALID,0,VALID,18.0515,VALID,118,VALID,0.0552455,
2009-08-03, 00:36:00,VALID,917.863,VALID,0,VALID,100,VALID,0,VALID,18.0318,VALID,108,VALID,0.00260417,
2009-08-03, 00:37:00,VALID,917.865,VALID,0,VALID,100,VALID,-0.0169808,VALID,18.0357,VALID,109,VALID,0.00133384,
2009-08-03, 00:38:00,VALID,917.847,VALID,0,VALID,100,VALID,0.0169808,VALID,18.029,VALID,117,VALID,0.00295139,
2009-08-03, 00:39:00,VALID,917.82,VALID,0,VALID,100,VALID,-0.0169808,VALID,18.0264,VALID,115,VALID,0.0832698,
2009-08-03, 00:40:00,VALID,917.797,VALID,0,VALID,100,VALID,-0.0169808,VALID,17.9968,VALID,115,VALID,0,
2009-08-03, 00:41:00,VALID,917.793,VALID,0,VALID,100,VALID,0,VALID,17.9776,VALID,117,VALID,0.0138494,
2009-08-03, 00:42:00,VALID,917.778,VALID,0,VALID,100,VALID,0,VALID,17.9542,VALID,128,VALID,0,
2009-08-03, 00:43:00,VALID,917.76,VALID,0,VALID,100,VALID,0,VALID,17.9509,VALID,136,VALID,0.0111607,
2009-08-03, 00:44:00,VALID,917.748,VALID,0,VALID,100,VALID,0,VALID,17.9447,VALID,137,VALID,0.0025436,
2009-08-03, 00:45:00,VALID,917.709,VALID,0,VALID,100,VALID,-0.0169808,VALID,17.9389,VALID,132,VALID,0.00138889,
2009-08-03, 00:46:00,VALID,917.698,VALID,0,VALID,100,VALID,0,VALID,17.9484,VALID,138,VALID,0.0868676,
2009-08-03, 00:47:00,VALID,917.677,VALID,0,VALID,100,VALID,-0.0169808,VALID,17.9512,VALID,124,VALID,0.127544,
2009-08-03, 00:48:00,VALID,917.66,VALID,0,VALID,100,VALID,-0.0169808,VALID,17.9386,VALID,122,VALID,0,
2009-08-03, 00:49:00,VALID,917.629,VALID,0,VALID,100,VALID,0,VALID,17.9317,VALID,122,VALID,0,
2009-08-03, 00:50:00,VALID,917.626,VALID,0,VALID,100,VALID,0,VALID,17.9282,VALID,133,VALID,0,
2009-08-03, 00:51:00,VALID,917.638,VALID,0,VALID,100,VALID,0,VALID,17.9153,VALID,119,VALID,0,
2009-08-03, 00:52:00,VALID,917.633,VALID,0,VALID,100,VALID,-0.0169808,VALID,17.9058,VALID,110,VALID,0,
2009-08-03, 00:53:00,VALID,917.615,VALID,0,VALID,100,VALID,0,VALID,17.8928,VALID,134,VALID,0,
2009-08-03, 00:54:00,VALID,917.598,VALID,0,VALID,100,VALID,0,VALID,17.8831,VALID,125,VALID,0,
2009-08-03, 00:55:00,VALID,917.587,VALID,0,VALID,100,VALID,0,VALID,17.8863,VALID,113,VALID,0.111607,
2009-08-03, 00:56:00,VALID,917.568,VALID,0,VALID,100,VALID,0,VALID,17.8537,VALID,111,VALID,0.0805432,
2009-08-03, 00:57:00,VALID,917.562,VALID,0,VALID,100,VALID,0,VALID,17.8407,VALID,128,VALID,0.0573552,
2009-08-03, 00:58:00,VALID,917.543,VALID,0,VALID,100,VALID,0.0169808,VALID,17.8374,VALID,128,VALID,0.0251116,
2009-08-03, 00:59:00,VALID,917.531,VALID,0,VALID,100,VALID,0,VALID,17.8249,VALID,121,VALID,0,
2009-08-03, 01:00:00,VALID,917.519,VALID,0,VALID,100,VALID,-0.0169808,VALID,17.8184,VALID,120,VALID,0.0586806,
2009-08-03, 01:01:00,VALID,917.535,VALID,0,VALID,100,VALID,0.0169808,VALID,17.8212,VALID,118,VALID,0.113377,
2009-08-03, 01:02:00,VALID,917.514,VALID,0,VALID,100,VALID,0,VALID,17.802,VALID,117,VALID,0.00941051,
2009-08-03, 01:03:00,VALID,917.5,VALID,0,VALID,100,VALID,-0.0339617,VALID,17.786,VALID,100,VALID,0,
2009-08-03, 01:04:00,VALID,917.493,VALID,0,VALID,100,VALID,0,VALID,17.7661,VALID,102,VALID,0,
2009-08-03, 01:05:00,VALID,917.489,VALID,0,VALID,100,VALID,0,VALID,17.7506,VALID,86,VALID,0,
2009-08-03, 01:06:00,VALID,917.506,VALID,0,VALID,100,VALID,0,VALID,17.7175,VALID,103,VALID,0,
2009-08-03, 01:07:00,VALID,917.505,VALID,0,VALID,100,VALID,0,VALID,17.7211,VALID,98,VALID,0,
2009-08-03, 01:08:00,VALID,917.498,VALID,0,VALID,100,VALID,0,VALID,17.685,VALID,105,VALID,0,
2009-08-03, 01:09:00,VALID,917.483,VALID,0,VALID,100,VALID,0,VALID,17.6788,VALID,105,VALID,0,
2009-08-03, 01:10:00,VALID,917.467,VALID,0,VALID,100,VALID,0,VALID,17.6626,VALID,109,VALID,0,
2009-08-03, 01:11:00,VALID,917.434,VALID,0,VALID,100,VALID,0,VALID,17.6332,VALID,132,VALID,0,
2009-08-03, 01:12:00,VALID,917.435,VALID,0,VALID,100,VALID,-0.0509425,VALID,17.6081,VALID,121,VALID,0,
2009-08-03, 01:13:00,VALID,917.404,VALID,0,VALID,100,VALID,-0.101885,VALID,17.6155,VALID,118,VALID,0,
2009-08-03, 01:14:00,VALID,917.394,VALID,0,VALID,100,VALID,-0.101885,VALID,17.5958,VALID,122,VALID,0,
2009-08-03, 01:15:00,VALID,917.374,VALID,0,VALID,100,VALID,-0.101885,VALID,17.5699,VALID,128,VALID,0,
2009-08-03, 01:16:00,VALID,917.381,VALID,0,VALID,100,VALID,-0.101885,VALID,17.5731,VALID,127,VALID,0,
2009-08-03, 01:17:00,VALID,917.371,VALID,0,VALID,100,VALID,-0.118866,VALID,17.5608,VALID,105,VALID,0,
2009-08-03, 01:18:00,VALID,917.379,VALID,0,VALID,100,VALID,-0.0849042,VALID,17.4923,VALID,103,VALID,0,
2009-08-03, 01:19:00,VALID,917.365,VALID,0,VALID,100,VALID,-0.101885,VALID,17.4529,VALID,93,VALID,0,
2009-08-03, 01:20:00,VALID,917.371,VALID,0,VALID,100,VALID,-0.0849042,VALID,17.4214,VALID,94,VALID,0,
2009-08-03, 01:21:00,VALID,917.364,VALID,0,VALID,100,VALID,-0.101885,VALID,17.4015,VALID,102,VALID,0,
2009-08-03, 01:22:00,VALID,917.354,VALID,0,VALID,100,VALID,-0.135847,VALID,17.379,VALID,102,VALID,0.0348011,
2009-08-03, 01:23:00,VALID,917.332,VALID,0,VALID,100,VALID,-0.118866,VALID,17.3595,VALID,93,VALID,0.00520833,
2009-08-03, 01:24:00,VALID,917.323,VALID,0,VALID,100,VALID,-0.135847,VALID,17.3336,VALID,75,VALID,0.00641026,
2009-08-03, 01:25:00,VALID,917.308,VALID,0,VALID,100,VALID,-0.101885,VALID,17.3239,VALID,92,VALID,0,
2009-08-03, 01:26:00,VALID,917.308,VALID,0,VALID,100,VALID,-0.101885,VALID,17.3074,VALID,91,VALID,0,
2009-08-03, 01:27:00,VALID,917.305,VALID,0,VALID,100,VALID,-0.0509425,VALID,17.2813,VALID,91,VALID,0,
2009-08-03, 01:28:00,VALID,917.308,VALID,0,VALID,100,VALID,-0.0169808,VALID,17.2475,VALID,91,VALID,0,
2009-08-03, 01:29:00,VALID,917.296,VALID,0,VALID,100,VALID,-0.0169808,VALID,17.2216,VALID,92,VALID,0,
2009-08-03, 01:30:00,VALID,917.27,VALID,0,VALID,100,VALID,0,VALID,17.1762,VALID,98,VALID,0,
2009-08-03, 01:31:00,VALID,917.238,VALID,0,VALID,100,VALID,-0.0169808,VALID,17.1503,VALID,104,VALID,0,
2009-08-03, 01:32:00,VALID,917.201,VALID,0,VALID,100,VALID,-0.0169808,VALID,17.1183,VALID,118,VALID,0,
2009-08-03, 01:33:00,VALID,917.2,VALID,0,VALID,100,VALID,-0.0169808,VALID,17.1023,VALID,122,VALID,0,
2009-08-03, 01:34:00,VALID,917.201,VALID,0,VALID,100,VALID,0,VALID,17.0826,VALID,129,VALID,0,
2009-08-03, 01:35:00,VALID,917.204,VALID,0,VALID,100,VALID,0,VALID,17.0398,VALID,137,VALID,0.0459449,
2009-08-03, 01:36:00,VALID,917.204,VALID,0,VALID,100,VALID,-0.0169808,VALID,17.0171,VALID,140,VALID,0.0146949,
2009-08-03, 01:37:00,VALID,917.184,VALID,0,VALID,100,VALID,0,VALID,16.9946,VALID,119,VALID,0,
2009-08-03, 01:38:00,VALID,917.163,VALID,0,VALID,100,VALID,0.0339617,VALID,16.9722,VALID,105,VALID,0,
2009-08-03, 01:39:01,VALID,917.152,VALID,0,VALID,100,VALID,0,VALID,16.9006,VALID,102,VALID,0,
2009-08-03, 01:40:00,VALID,917.145,VALID,0,VALID,100,VALID,0,VALID,16.8557,VALID,102,VALID,0.0226935,
2009-08-03, 01:41:01,VALID,917.158,VALID,0,VALID,100,VALID,0,VALID,16.8226,VALID,105,VALID,0.0662007,
2009-08-03, 01:42:00,VALID,917.169,VALID,0,VALID,100,VALID,0,VALID,16.8356,VALID,125,VALID,0,
2009-08-03, 01:43:00,VALID,917.175,VALID,0,VALID,100,VALID,0.0339617,VALID,16.8356,VALID,142,VALID,0.00093006,
2009-08-03, 01:44:00,VALID,917.162,VALID,0,VALID,100,VALID,0.0169808,VALID,16.8453,VALID,155,VALID,0,
2009-08-03, 01:45:00,VALID,917.147,VALID,0,VALID,100,VALID,0,VALID,16.865,VALID,156,VALID,0,
2009-08-03, 01:46:01,VALID,917.133,VALID,0,VALID,100,VALID,0.0169808,VALID,16.8678,VALID,147,VALID,0,
2009-08-03, 01:47:00,VALID,917.115,VALID,0,VALID,100,VALID,0,VALID,16.8812,VALID,151,VALID,0,
2009-08-03, 01:48:01,VALID,917.105,VALID,0,VALID,100,VALID,0,VALID,16.8715,VALID,148,VALID,0,
2009-08-03, 01:49:00,VALID,917.091,VALID,0,VALID,100,VALID,0.0339617,VALID,16.8747,VALID,134,VALID,0,
2009-08-03, 01:50:01,VALID,917.081,VALID,0,VALID,100,VALID,-0.0169808,VALID,16.839,VALID,130,VALID,0,
2009-08-03, 01:51:00,VALID,917.1,VALID,0,VALID,100,VALID,0,VALID,16.8194,VALID,132,VALID,0.102083,
2009-08-03, 01:52:00,VALID,917.117,VALID,0,VALID,100,VALID,0,VALID,16.7971,VALID,135,VALID,0,
2009-08-03, 01:53:01,VALID,917.125,VALID,0,VALID,100,VALID,0.0339617,VALID,16.7643,VALID,141,VALID,0,
2009-08-03, 01:54:00,VALID,917.129,VALID,0,VALID,100,VALID,0.0169808,VALID,16.758,VALID,139,VALID,0,
2009-08-03, 01:55:00,VALID,917.125,VALID,0,VALID,100,VALID,-0.0169808,VALID,16.7774,VALID,134,VALID,0,
2009-08-03, 01:56:00,VALID,917.123,VALID,0,VALID,100,VALID,0.0339617,VALID,16.774,VALID,123,VALID,0.133984,
2009-08-03, 01:57:01,VALID,917.095,VALID,0,VALID,100,VALID,0.0509425,VALID,16.7448,VALID,126,VALID,0.0125762,
2009-08-03, 01:58:00,VALID,917.083,VALID,0,VALID,100,VALID,0.0339617,VALID,16.7513,VALID,126,VALID,0,
2009-08-03, 01:59:00,VALID,917.102,VALID,0,VALID,100,VALID,0.0339617,VALID,16.761,VALID,125,VALID,0,
2009-08-03, 02:00:01,VALID,917.088,VALID,0,VALID,100,VALID,0,VALID,16.7383,VALID,105,VALID,0,
2009-08-03, 02:01:00,VALID,917.089,VALID,0,VALID,100,VALID,0.0679233,VALID,16.7286,VALID,129,VALID,0,
2009-08-03, 02:02:00,VALID,917.07,VALID,0,VALID,100,VALID,0.0169808,VALID,16.7351,VALID,143,VALID,0,
2009-08-03, 02:03:00,VALID,917.071,VALID,0,VALID,100,VALID,0.0339617,VALID,16.7513,VALID,143,VALID,0,
2009-08-03, 02:04:00,VALID,917.061,VALID,0,VALID,100,VALID,0.0169808,VALID,16.7476,VALID,136,VALID,0.0268111,
2009-08-03, 02:05:01,VALID,917.051,VALID,0,VALID,100,VALID,0.0169808,VALID,16.758,VALID,147,VALID,0.0267078,
2009-08-03, 02:06:00,VALID,917.043,VALID,0,VALID,100,VALID,0.0509425,VALID,16.7707,VALID,156,VALID,0.063101,
2009-08-03, 02:07:00,VALID,917.043,VALID,0,VALID,100,VALID,0.0339617,VALID,16.764,VALID,133,VALID,0.0254836,
2009-08-03, 02:08:00,VALID,917.05,VALID,0,VALID,100,VALID,0.0169808,VALID,16.7608,VALID,144,VALID,0.0025436,
2009-08-03, 02:09:00,VALID,917.032,VALID,0,VALID,100,VALID,0,VALID,16.761,VALID,147,VALID,0,
2009-08-03, 02:10:01,VALID,917.042,VALID,0,VALID,100,VALID,0.0339617,VALID,16.7705,VALID,151,VALID,0,
2009-08-03, 02:11:00,VALID,917.048,VALID,0,VALID,100,VALID,0.0169808,VALID,16.7772,VALID,138,VALID,0,
2009-08-03, 02:12:01,VALID,917.031,VALID,0,VALID,100,VALID,0,VALID,16.7811,VALID,141,VALID,0,
2009-08-03, 02:13:00,VALID,917.042,VALID,0,VALID,100,VALID,0.0169808,VALID,16.7675,VALID,136,VALID,0,
2009-08-03, 02:14:00,VALID,917.044,VALID,0,VALID,100,VALID,0.0169808,VALID,16.7545,VALID,130,VALID,0,
2009-08-03, 02:15:01,VALID,917.038,VALID,0,VALID,100,VALID,0.0509425,VALID,16.7381,VALID,131,VALID,0,
2009-08-03, 02:16:01,VALID,917.042,VALID,0,VALID,100,VALID,0.0169808,VALID,16.7025,VALID,128,VALID,0,
2009-08-03, 02:17:00,VALID,917.039,VALID,0,VALID,100,VALID,0.0509425,VALID,16.6441,VALID,124,VALID,0,
2009-08-03, 02:18:01,VALID,917.032,VALID,0,VALID,100,VALID,0.0339617,VALID,16.6151,VALID,136,VALID,0,
2009-08-03, 02:19:00,VALID,917.024,VALID,0,VALID,100,VALID,0,VALID,16.5957,VALID,147,VALID,0,
2009-08-03, 02:20:01,VALID,917.013,VALID,0,VALID,100,VALID,0,VALID,16.5892,VALID,139,VALID,0,
2009-08-03, 02:21:00,VALID,916.975,VALID,0,VALID,100,VALID,0.0509425,VALID,16.5825,VALID,137,VALID,0.0695312,
2009-08-03, 02:22:01,VALID,916.953,VALID,0,VALID,100,VALID,0.0509425,VALID,16.576,VALID,136,VALID,0.00434028,
2009-08-03, 02:23:01,VALID,916.921,VALID,0,VALID,100,VALID,0,VALID,16.573,VALID,139,VALID,0,
2009-08-03, 02:24:01,VALID,916.888,VALID,0,VALID,100,VALID,0,VALID,16.5503,VALID,139,VALID,0,
2009-08-03, 02:25:01,VALID,916.888,VALID,0,VALID,100,VALID,0.0339617,VALID,16.5732,VALID,145,VALID,0.0212054,
2009-08-03, 02:26:01,VALID,916.891,VALID,0,VALID,100,VALID,0,VALID,16.5829,VALID,151,VALID,0.00114329,
2009-08-03, 02:27:01,VALID,916.897,VALID,0,VALID,100,VALID,0,VALID,16.5959,VALID,148,VALID,0.0792411,
2009-08-03, 02:28:01,VALID,916.912,VALID,0,VALID,100,VALID,0,VALID,16.5953,VALID,150,VALID,0.00334821,
2009-08-03, 02:29:01,VALID,916.898,VALID,0,VALID,100,VALID,-0.0169808,VALID,16.6279,VALID,145,VALID,0.0134448,
2009-08-03, 02:30:01,VALID,916.864,VALID,0,VALID,100,VALID,0.0169808,VALID,16.654,VALID,147,VALID,0.166667,
2009-08-03, 02:31:01,VALID,916.829,VALID,0,VALID,100,VALID,0,VALID,16.6184,VALID,119,VALID,0.0436357,
2009-08-03, 02:32:01,VALID,916.796,VALID,0,VALID,100,VALID,0.0169808,VALID,16.5922,VALID,130,VALID,0,
2009-08-03, 02:33:01,VALID,916.77,VALID,0,VALID,100,VALID,0.0339617,VALID,16.5758,VALID,140,VALID,0.0651042,
2009-08-03, 02:34:01,VALID,916.742,VALID,0,VALID,100,VALID,0.0169808,VALID,16.5665,VALID,133,VALID,0.343941,
2009-08-03, 02:35:01,VALID,916.738,VALID,0,VALID,100,VALID,0,VALID,16.5179,VALID,140,VALID,0,
2009-08-03, 02:36:01,VALID,916.74,VALID,0,VALID,100,VALID,0.0169808,VALID,16.5047,VALID,152,VALID,0.13186,
2009-08-03, 02:37:00,VALID,916.73,VALID,0,VALID,100,VALID,0.0169808,VALID,16.5049,VALID,142,VALID,0.138247,
2009-08-03, 02:38:00,VALID,916.733,VALID,0,VALID,100,VALID,0.0679233,VALID,16.4624,VALID,147,VALID,0.0435764,
2009-08-03, 02:39:00,VALID,916.739,VALID,0,VALID,100,VALID,0.0679233,VALID,16.4105,VALID,158,VALID,0.03125,
2009-08-03, 02:40:00,VALID,916.729,VALID,0,VALID,100,VALID,0.0339617,VALID,16.385,VALID,152,VALID,0.0823038,
2009-08-03, 02:41:00,VALID,916.727,VALID,0,VALID,100,VALID,0.0679233,VALID,16.3457,VALID,154,VALID,0.174924,
2009-08-03, 02:42:00,VALID,916.713,VALID,0,VALID,100,VALID,0.0169808,VALID,16.3297,VALID,148,VALID,0.13157,
2009-08-03, 02:43:00,VALID,916.693,VALID,0,VALID,100,VALID,0,VALID,16.2713,VALID,150,VALID,0.156836,
2009-08-03, 02:44:00,VALID,916.676,VALID,0,VALID,100,VALID,0,VALID,16.2229,VALID,145,VALID,0.216211,
2009-08-03, 02:45:00,VALID,916.673,VALID,0,VALID,100,VALID,0.0339617,VALID,16.1741,VALID,148,VALID,0.115039,
2009-08-03, 02:46:00,VALID,916.674,VALID,0,VALID,100,VALID,0.0339617,VALID,16.1058,VALID,147,VALID,0.150568,
2009-08-03, 02:47:00,VALID,916.672,VALID,0,VALID,100,VALID,0.0339617,VALID,16.0668,VALID,150,VALID,0.116425,
2009-08-03, 02:48:00,VALID,916.669,VALID,0,VALID,100,VALID,0,VALID,16.0281,VALID,144,VALID,0.421689,
2009-08-03, 02:49:00,VALID,916.659,VALID,0,VALID,100,VALID,0.0339617,VALID,15.9821,VALID,144,VALID,0.919017,
2009-08-03, 02:50:00,VALID,916.672,VALID,0,VALID,100,VALID,0,VALID,15.9438,VALID,143,VALID,1.37946,
2009-08-03, 02:51:00,VALID,916.671,VALID,0,VALID,100,VALID,0.0339617,VALID,15.9276,VALID,141,VALID,1.42435,
2009-08-03, 02:52:00,VALID,916.677,VALID,0,VALID,100,VALID,0,VALID,15.9408,VALID,156,VALID,0.906072,
2009-08-03, 02:53:00,VALID,916.661,VALID,0,VALID,100,VALID,0.0339617,VALID,15.9276,VALID,146,VALID,1.04967,
2009-08-03, 02:54:00,VALID,916.65,VALID,0,VALID,100,VALID,0.0339617,VALID,15.9047,VALID,144,VALID,1.34695,
2009-08-03, 02:55:00,VALID,916.625,VALID,0,VALID,100,VALID,0,VALID,15.8662,VALID,141,VALID,1.32999,
2009-08-03, 02:56:00,VALID,916.623,VALID,0,VALID,100,VALID,0.0169808,VALID,15.8437,VALID,140,VALID,1.17411,
2009-08-03, 02:57:00,VALID,916.603,VALID,0,VALID,100,VALID,-0.0509425,VALID,15.7662,VALID,136,VALID,1.53576,
2009-08-03, 02:58:00,VALID,916.615,VALID,0,VALID,100,VALID,-0.0679233,VALID,15.7115,VALID,142,VALID,1.73376,
2009-08-03, 02:59:00,VALID,916.62,VALID,0,VALID,100,VALID,-0.101885,VALID,15.6955,VALID,139,VALID,1.39688,
2009-08-03, 03:00:00,VALID,916.621,VALID,0,VALID,100,VALID,-0.101885,VALID,15.6535,VALID,135,VALID,1.81027,
2009-08-03, 03:01:00,VALID,916.622,VALID,0,VALID,100,VALID,-0.101885,VALID,15.6404,VALID,150,VALID,1.38281,
2009-08-03, 03:02:00,VALID,916.612,VALID,0,VALID,100,VALID,-0.118866,VALID,15.6148,VALID,129,VALID,1.40341,
2009-08-03, 03:03:00,VALID,916.603,VALID,0,VALID,100,VALID,-0.0849042,VALID,15.5626,VALID,126,VALID,1.59642,
2009-08-03, 03:04:00,VALID,916.626,VALID,0,VALID,100,VALID,-0.101885,VALID,15.5304,VALID,132,VALID,1.61639,
2009-08-03, 03:05:00,VALID,916.625,VALID,0,VALID,100,VALID,-0.101885,VALID,15.4814,VALID,129,VALID,1.89644,
2009-08-03, 03:06:00,VALID,916.633,VALID,0,VALID,100,VALID,-0.0849042,VALID,15.4293,VALID,139,VALID,1.76616,
2009-08-03, 03:07:00,VALID,916.652,VALID,0,VALID,100,VALID,-0.101885,VALID,15.407,VALID,131,VALID,1.79488,
2009-08-03, 03:08:00,VALID,916.651,VALID,0,VALID,100,VALID,-0.0509425,VALID,15.3842,VALID,133,VALID,1.40566,
2009-08-03, 03:09:00,VALID,916.652,VALID,0,VALID,100,VALID,-0.101885,VALID,15.3748,VALID,119,VALID,1.39558,
2009-08-03, 03:10:00,VALID,916.65,VALID,0,VALID,100,VALID,-0.0679233,VALID,15.355,VALID,129,VALID,1.26635,
2009-08-03, 03:11:00,VALID,916.671,VALID,0,VALID,100,VALID,-0.0849042,VALID,15.3386,VALID,127,VALID,1.2309,
2009-08-03, 03:12:00,VALID,916.697,VALID,0,VALID,100,VALID,-0.0509425,VALID,15.3357,VALID,139,VALID,0.816797,
2009-08-03, 03:13:00,VALID,916.718,VALID,0,VALID,100,VALID,-0.0849042,VALID,15.2902,VALID,138,VALID,1.37402,
2009-08-03, 03:14:00,VALID,916.71,VALID,0,VALID,100,VALID,-0.0679233,VALID,15.2866,VALID,140,VALID,1.37407,
2009-08-03, 03:15:00,VALID,916.687,VALID,0,VALID,100,VALID,-0.0339617,VALID,15.3092,VALID,144,VALID,1.24236,
2009-08-03, 03:16:00,VALID,916.656,VALID,0,VALID,100,VALID,-0.0679233,VALID,15.3252,VALID,130,VALID,1.07107,
2009-08-03, 03:17:00,VALID,916.631,VALID,0,VALID,100,VALID,-0.0339617,VALID,15.3123,VALID,133,VALID,1.23095,
2009-08-03, 03:18:00,VALID,916.622,VALID,0,VALID,100,VALID,-0.0849042,VALID,15.2963,VALID,129,VALID,1.2128,
2009-08-03, 03:19:00,VALID,916.614,VALID,0,VALID,100,VALID,-0.0679233,VALID,15.2799,VALID,132,VALID,1.0536,
2009-08-03, 03:20:00,VALID,916.632,VALID,0,VALID,100,VALID,-0.0339617,VALID,15.2736,VALID,134,VALID,1.18695,
2009-08-03, 03:21:00,VALID,916.629,VALID,0,VALID,100,VALID,-0.0509425,VALID,15.2866,VALID,140,VALID,1.19869,
2009-08-03, 03:22:00,VALID,916.622,VALID,0,VALID,100,VALID,-0.101885,VALID,15.309,VALID,135,VALID,1.2619,
2009-08-03, 03:23:00,VALID,916.624,VALID,0,VALID,100,VALID,-0.0339617,VALID,15.3287,VALID,126,VALID,1.3043,
2009-08-03, 03:24:00,VALID,916.614,VALID,0,VALID,100,VALID,-0.0679233,VALID,15.3678,VALID,123,VALID,1.27785,
2009-08-03, 03:25:00,VALID,916.602,VALID,0,VALID,100,VALID,-0.0679233,VALID,15.3516,VALID,117,VALID,0.730097,
2009-08-03, 03:26:00,VALID,916.596,VALID,0,VALID,100,VALID,-0.0169808,VALID,15.2572,VALID,116,VALID,0.858613,
2009-08-03, 03:27:00,VALID,916.574,VALID,0,VALID,100,VALID,0,VALID,15.2374,VALID,127,VALID,1.03924,
2009-08-03, 03:28:00,VALID,916.576,VALID,0,VALID,100,VALID,-0.0169808,VALID,15.2408,VALID,135,VALID,1.43496,
2009-08-03, 03:29:00,VALID,916.571,VALID,0,VALID,100,VALID,-0.0339617,VALID,15.2376,VALID,134,VALID,1.27195,
2009-08-03, 03:30:00,VALID,916.576,VALID,0,VALID,100,VALID,-0.0169808,VALID,15.2507,VALID,135,VALID,1.37557,
2009-08-03, 03:31:00,VALID,916.563,VALID,0,VALID,100,VALID,0,VALID,15.2538,VALID,131,VALID,0.978981,
2009-08-03, 03:32:00,VALID,916.56,VALID,0,VALID,100,VALID,-0.0169808,VALID,15.2507,VALID,125,VALID,1.09527,
2009-08-03, 03:33:00,VALID,916.541,VALID,0,VALID,100,VALID,0,VALID,15.244,VALID,129,VALID,1.14595,
2009-08-03, 03:34:00,VALID,916.514,VALID,0,VALID,100,VALID,-0.0169808,VALID,15.2665,VALID,133,VALID,1.38132,
2009-08-03, 03:35:00,VALID,916.492,VALID,0,VALID,100,VALID,-0.0339617,VALID,15.3123,VALID,136,VALID,1.48789,
2009-08-03, 03:36:00,VALID,916.464,VALID,0,VALID,100,VALID,0,VALID,15.3414,VALID,153,VALID,0.951308,
2009-08-03, 03:37:00,VALID,916.452,VALID,0,VALID,100,VALID,-0.0169808,VALID,15.3346,VALID,150,VALID,1.1582,
2009-08-03, 03:38:00,VALID,916.447,VALID,0,VALID,100,VALID,-0.0169808,VALID,15.3641,VALID,145,VALID,1.44822,
2009-08-03, 03:39:00,VALID,916.449,VALID,0,VALID,100,VALID,-0.0509425,VALID,15.4,VALID,141,VALID,0.933203,
2009-08-03, 03:40:00,VALID,916.456,VALID,0,VALID,100,VALID,-0.135847,VALID,15.404,VALID,147,VALID,1.08464,
2009-08-03, 03:41:00,VALID,916.446,VALID,0,VALID,100,VALID,-0.152827,VALID,15.407,VALID,143,VALID,1.09884,
2009-08-03, 03:42:00,VALID,916.425,VALID,0,VALID,100,VALID,-0.0339617,VALID,15.4392,VALID,148,VALID,0.958519,
2009-08-03, 03:43:00,VALID,916.396,VALID,0,VALID,100,VALID,0,VALID,15.4547,VALID,144,VALID,1.01222,
2009-08-03, 03:44:00,VALID,916.386,VALID,0,VALID,100,VALID,-0.0339617,VALID,15.4806,VALID,133,VALID,1.06473,
2009-08-03, 03:45:00,VALID,916.388,VALID,0,VALID,100,VALID,-0.0339617,VALID,15.5098,VALID,136,VALID,0.98473,
2009-08-03, 03:46:00,VALID,916.396,VALID,0,VALID,100,VALID,0,VALID,15.5292,VALID,146,VALID,1.26962,
2009-08-03, 03:47:00,VALID,916.398,VALID,0,VALID,100,VALID,-0.0339617,VALID,15.5225,VALID,149,VALID,1.10804,